�������l�o���
Date,Time,MP-1(��Sv/h),MP-2(��Sv/h),MP-3(��Sv/h),MP-4(��Sv/h),MP-5(��Sv/h),MP-6(��Sv/h),MP-7(��Sv/h),MP-8(��Sv/h),����,����(m/s),���J
2017/07/05,00:00,0.944,1.487,1.000,1.791,1.215,0.519,0.944,0.873,��쓌,2.6,�L
2017/07/05,00:10,0.946,1.489,1.003,1.788,1.212,0.519,0.943,0.875,��쓌,4.6,��
2017/07/05,00:20,0.946,1.489,1.000,1.789,1.215,0.520,0.945,0.875,��쓌,4.3,��
2017/07/05,00:30,0.943,1.492,0.999,1.791,1.214,0.521,0.943,0.874,��쓌,3.9,��
2017/07/05,00:40,0.945,1.492,1.000,1.789,1.215,0.520,0.944,0.873,�쓌,4.4,��
2017/07/05,00:50,0.945,1.492,1.001,1.790,1.215,0.521,0.946,0.875,�쓌,5.6,��
2017/07/05,01:00,0.946,1.493,1.000,1.789,1.215,0.521,0.945,0.877,���쓌,4.2,��
2017/07/05,01:10,0.947,1.495,1.000,1.792,1.216,0.522,0.945,0.875,���쓌,2.3,��
2017/07/05,01:20,0.946,1.493,1.001,1.792,1.215,0.522,0.945,0.875,�k��,1.5,��
2017/07/05,01:30,0.949,1.495,1.003,1.789,1.217,0.520,0.945,0.876,�k��,1.1,��
2017/07/05,01:40,0.947,1.495,1.002,1.792,1.218,0.520,0.946,0.876,�k��,0.6,��
2017/07/05,01:50,0.945,1.495,1.002,1.791,1.220,0.523,0.945,0.875,-,CALM,��
2017/07/05,02:00,0.948,1.493,1.000,1.793,1.221,0.523,0.945,0.875,��,0.6,��
2017/07/05,02:10,0.948,1.492,1.003,1.793,1.219,0.522,0.944,0.878,�k��,1.2,��
2017/07/05,02:20,0.948,1.492,1.002,1.794,1.219,0.519,0.945,0.876,�k�k��,0.8,��
2017/07/05,02:30,0.946,1.497,1.000,1.793,1.219,0.522,0.945,0.876,-,CALM,��
2017/07/05,02:40,0.946,1.496,1.002,1.794,1.221,0.522,0.946,0.876,�k,1.4,��
2017/07/05,02:50,0.947,1.494,1.002,1.796,1.221,0.521,0.946,0.876,�k,2.0,��
2017/07/05,03:00,0.947,1.494,1.003,1.794,1.221,0.522,0.945,0.877,�k�k��,1.7,��
2017/07/05,03:10,0.946,1.494,1.003,1.791,1.220,0.522,0.945,0.878,�k,1.5,��
2017/07/05,03:20,0.946,1.496,1.003,1.796,1.221,0.520,0.945,0.879,�k,2.6,��
2017/07/05,03:30,0.948,1.494,1.002,1.795,1.221,0.523,0.947,0.876,�k,4.1,��
2017/07/05,03:40,0.947,1.496,1.004,1.794,1.220,0.520,0.945,0.875,�k,5.4,��
2017/07/05,03:50,0.945,1.496,1.001,1.796,1.223,0.522,0.944,0.876,�k,5.4,��
2017/07/05,04:00,0.946,1.497,1.003,1.794,1.221,0.520,0.946,0.876,�k,4.9,��
2017/07/05,04:10,0.944,1.497,1.003,1.798,1.222,0.520,0.945,0.877,�k,4.5,��
2017/07/05,04:20,0.946,1.496,1.003,1.795,1.222,0.520,0.944,0.877,�k�k��,3.8,��
2017/07/05,04:30,0.947,1.495,1.004,1.795,1.221,0.520,0.945,0.875,�k,4.3,��
2017/07/05,04:40,0.945,1.496,1.003,1.796,1.222,0.520,0.943,0.876,�k�k��,4.4,��
2017/07/05,04:50,0.946,1.498,1.003,1.794,1.222,0.522,0.944,0.876,�k�k��,4.6,��
2017/07/05,05:00,0.947,1.496,1.003,1.796,1.222,0.521,0.945,0.875,�k�k��,5.0,��
2017/07/05,05:10,0.946,1.497,1.002,1.797,1.222,0.520,0.944,0.877,�k�k��,4.5,��
2017/07/05,05:20,0.948,1.497,1.004,1.797,1.222,0.519,0.945,0.876,�k�k��,4.4,��
2017/07/05,05:30,0.950,1.496,1.003,1.794,1.223,0.518,0.947,0.878,�k�k��,3.8,��
2017/07/05,05:40,0.948,1.496,1.004,1.796,1.223,0.519,0.946,0.876,�k�k��,4.6,��
2017/07/05,05:50,0.950,1.496,1.005,1.793,1.222,0.520,0.945,0.876,�k�k��,4.8,�L
2017/07/05,06:00,0.946,1.496,1.003,1.795,1.223,0.519,0.945,0.878,�k�k��,4.8,�L
2017/07/05,06:10,0.948,1.497,1.002,1.797,1.222,0.519,0.946,0.876,�k�k��,4.8,��
2017/07/05,06:20,0.947,1.499,1.003,1.794,1.222,0.519,0.944,0.878,�k�k��,5.8,��
2017/07/05,06:30,0.947,1.497,1.005,1.795,1.222,0.518,0.947,0.877,�k�k��,6.4,��
2017/07/05,06:40,0.948,1.498,1.001,1.796,1.226,0.518,0.947,0.875,�k�k��,5.7,��
2017/07/05,06:50,0.948,1.496,1.001,1.797,1.223,0.518,0.946,0.877,�k�k��,5.9,�L
2017/07/05,07:00,0.947,1.497,1.001,1.798,1.224,0.518,0.943,0.876,�k�k��,4.9,�L
2017/07/05,07:10,0.947,1.497,1.002,1.794,1.225,0.517,0.946,0.877,�k�k��,4.1,��
2017/07/05,07:20,0.946,1.496,1.003,1.794,1.223,0.517,0.945,0.877,�k�k��,4.0,��
2017/07/05,07:30,0.948,1.499,1.003,1.797,1.224,0.517,0.947,0.877,�k�k��,4.1,��
2017/07/05,07:40,0.945,1.498,1.003,1.798,1.224,0.518,0.945,0.877,�k,3.6,��
2017/07/05,07:50,0.946,1.498,1.004,1.796,1.222,0.517,0.945,0.876,�k�k��,3.0,��
2017/07/05,08:00,0.945,1.498,1.002,1.796,1.222,0.516,0.946,0.876,�k�k��,5.5,��
2017/07/05,08:10,0.948,1.495,1.002,1.799,1.224,0.519,0.947,0.875,�k,5.1,��
2017/07/05,08:20,0.947,1.497,1.004,1.799,1.225,0.517,0.944,0.875,�k�k��,4.7,��
2017/07/05,08:30,0.946,1.497,1.002,1.797,1.224,0.517,0.947,0.875,�k,4.3,��
2017/07/05,08:40,0.947,1.501,1.001,1.797,1.223,0.517,0.947,0.875,�k,5.1,��
2017/07/05,08:50,0.950,1.498,1.001,1.801,1.225,0.517,0.945,0.875,�k,4.5,��
2017/07/05,09:00,0.950,1.496,1.001,1.802,1.224,0.517,0.948,0.873,�k,4.8,��
2017/07/05,09:10,0.949,1.499,1.001,1.799,1.226,0.520,0.948,0.878,�k,4.1,��
2017/07/05,09:20,0.949,1.500,1.000,1.800,1.229,0.517,0.949,0.877,�k,3.5,��
2017/07/05,09:30,0.953,1.500,1.001,1.802,1.230,0.519,0.949,0.875,�k,3.0,��
2017/07/05,09:40,0.951,1.504,1.004,1.801,1.226,0.518,0.949,0.878,�k�k��,3.4,��
2017/07/05,09:50,0.953,1.503,1.005,1.805,1.230,0.520,0.951,0.878,�k,3.7,��
2017/07/05,10:00,0.955,1.504,1.004,1.802,1.229,0.519,0.952,0.878,�k,3.0,��
2017/07/05,10:10,0.957,1.505,1.005,1.806,1.229,0.519,0.949,0.876,�k��,2.5,��
2017/07/05,10:20,0.955,1.508,1.006,1.804,1.231,0.520,0.949,0.876,�k��,4.0,��
2017/07/05,10:30,0.956,1.507,1.007,1.804,1.234,0.519,0.948,0.877,�k��,3.9,��
2017/07/05,10:40,0.955,1.508,1.002,1.807,1.233,0.517,0.950,0.877,���k��,2.5,��
2017/07/05,10:50,0.957,1.508,1.005,1.807,1.235,0.519,0.949,0.878,�k��,2.9,��
2017/07/05,11:00,0.957,1.511,1.007,1.802,1.235,0.520,0.950,0.878,���k��,3.4,��
2017/07/05,11:10,0.957,1.509,1.008,1.805,1.236,0.518,0.950,0.879,�k��,3.1,��
2017/07/05,11:20,0.956,1.509,1.007,1.805,1.237,0.520,0.950,0.878,���k��,2.3,�L
2017/07/05,11:30,0.958,1.511,1.006,1.805,1.236,0.519,0.950,0.879,���k��,2.5,�L
2017/07/05,11:40,0.958,1.509,1.006,1.804,1.239,0.520,0.951,0.877,���k��,2.6,��
2017/07/05,11:50,0.952,1.503,1.010,1.803,1.240,0.519,0.951,0.879,�k��,1.9,�L
2017/07/05,12:00,0.947,1.498,1.009,1.807,1.239,0.520,0.951,0.879,�k��,1.4,��
2017/07/05,12:10,0.948,1.504,1.010,1.804,1.240,0.520,0.953,0.881,�k�k��,2.3,�L
2017/07/05,12:20,0.950,1.501,1.009,1.807,1.241,0.520,0.953,0.880,�k��,2.5,�L
2017/07/05,12:30,0.949,1.506,1.009,1.806,1.236,0.520,0.953,0.879,�k�k��,2.6,��
2017/07/05,12:40,0.946,1.496,1.006,1.803,1.241,0.521,0.952,0.880,�k��,0.8,�L
2017/07/05,12:50,0.940,1.482,1.004,1.805,1.240,0.521,0.951,0.879,���쓌,1.7,�L
2017/07/05,13:00,0.944,1.481,1.004,1.809,1.239,0.521,0.953,0.878,���k��,1.4,�L
2017/07/05,13:10,0.943,1.484,1.002,1.807,1.239,0.521,0.953,0.878,���쓌,1.7,�L
2017/07/05,13:20,0.939,1.478,1.001,1.807,1.242,0.522,0.952,0.878,��,2.0,�L
2017/07/05,13:30,0.920,1.459,0.997,1.805,1.241,0.521,0.952,0.881,���쓌,2.3,�L
2017/07/05,13:40,0.932,1.468,0.998,1.802,1.240,0.522,0.950,0.877,�쓌,2.8,�L
2017/07/05,13:50,0.931,1.466,0.997,1.806,1.238,0.520,0.950,0.876,�k��,1.7,�L
2017/07/05,14:00,0.915,1.442,0.987,1.805,1.237,0.521,0.952,0.876,�쓌,1.4,�L
2017/07/05,14:10,0.927,1.451,0.991,1.806,1.241,0.521,0.952,0.876,�쓌,2.8,�L
2017/07/05,14:20,0.935,1.464,0.988,1.808,1.241,0.525,0.952,0.876,�k��,0.6,��
2017/07/05,14:30,0.938,1.469,0.990,1.807,1.240,0.524,0.951,0.877,�쓌,1.4,��
2017/07/05,14:40,0.939,1.469,0.991,1.807,1.241,0.523,0.951,0.878,��쓌,1.5,�L
2017/07/05,14:50,0.926,1.455,0.990,1.811,1.239,0.523,0.953,0.879,���쓌,1.2,�L
2017/07/05,15:00,0.925,1.461,0.988,1.806,1.242,0.522,0.952,0.877,�쓌,0.6,�L
2017/07/05,15:10,0.930,1.457,0.987,1.805,1.240,0.523,0.948,0.874,���쓌,0.9,�L
2017/07/05,15:20,0.932,1.450,0.983,1.792,1.237,0.523,0.950,0.874,�k�k��,0.8,�L
2017/07/05,15:30,0.933,1.458,0.986,1.788,1.227,0.522,0.943,0.870,��,3.1,�L
2017/07/05,15:40,0.935,1.461,0.985,1.783,1.223,0.520,0.942,0.868,�k��,1.2,�L
2017/07/05,15:50,0.934,1.465,0.986,1.787,1.224,0.522,0.942,0.870,��쓌,1.2,�L
2017/07/05,16:00,0.939,1.467,0.990,1.785,1.224,0.521,0.943,0.869,��쓌,1.2,��
2017/07/05,16:10,0.937,1.472,0.990,1.787,1.227,0.522,0.944,0.869,��,2.6,��
2017/07/05,16:20,0.936,1.470,0.991,1.790,1.226,0.522,0.944,0.871,�쓌,2.3,��
2017/07/05,16:30,0.940,1.473,0.991,1.790,1.225,0.522,0.944,0.871,���쓌,2.3,��
2017/07/05,16:40,0.937,1.475,0.993,1.788,1.224,0.522,0.944,0.870,��쓌,4.1,��
2017/07/05,16:50,0.938,1.475,0.993,1.789,1.227,0.520,0.945,0.870,��쓌,5.0,��
2017/07/05,17:00,0.938,1.478,0.995,1.789,1.225,0.521,0.944,0.870,��쓌,4.8,��
2017/07/05,17:10,0.939,1.477,0.994,1.790,1.226,0.520,0.945,0.872,��쓌,3.6,��
2017/07/05,17:20,0.939,1.477,0.995,1.787,1.228,0.522,0.945,0.873,��쓌,3.3,��
2017/07/05,17:30,0.939,1.479,0.995,1.789,1.229,0.521,0.943,0.874,��쓌,3.3,��
2017/07/05,17:40,0.941,1.482,0.996,1.791,1.225,0.521,0.944,0.873,��쓌,3.9,��
2017/07/05,17:50,0.941,1.481,0.993,1.788,1.230,0.520,0.945,0.872,��쓌,3.8,��
2017/07/05,18:00,0.940,1.487,0.994,1.791,1.227,0.521,0.946,0.874,��,3.6,��
2017/07/05,18:10,0.940,1.486,0.996,1.791,1.228,0.524,0.946,0.873,��쓌,2.8,��
2017/07/05,18:20,0.940,1.484,0.995,1.792,1.228,0.523,0.944,0.874,��쓌,5.7,��
2017/07/05,18:30,0.939,1.487,0.996,1.791,1.230,0.523,0.945,0.873,��쓌,4.5,��
2017/07/05,18:40,0.941,1.490,0.995,1.794,1.230,0.524,0.944,0.875,��쓌,3.9,��
2017/07/05,18:50,0.940,1.488,0.995,1.796,1.229,0.522,0.945,0.873,��쓌,3.5,��
2017/07/05,19:00,0.942,1.485,0.996,1.794,1.229,0.524,0.944,0.875,��,5.6,��
2017/07/05,19:10,0.941,1.488,0.995,1.796,1.229,0.525,0.945,0.875,��,4.6,��
2017/07/05,19:20,0.943,1.489,0.996,1.798,1.231,0.524,0.946,0.877,��쓌,4.3,��
2017/07/05,19:30,0.941,1.493,0.998,1.797,1.230,0.525,0.945,0.876,��쓌,4.1,��
2017/07/05,19:40,0.944,1.490,0.999,1.797,1.234,0.523,0.946,0.877,��,4.5,��
2017/07/05,19:50,0.943,1.493,0.997,1.797,1.232,0.525,0.944,0.874,��,5.5,��
2017/07/05,20:00,0.942,1.491,1.000,1.795,1.232,0.525,0.948,0.876,��,5.4,��
2017/07/05,20:10,0.943,1.489,1.000,1.800,1.230,0.524,0.949,0.877,��,5.9,��
2017/07/05,20:20,0.943,1.492,1.000,1.795,1.235,0.525,0.948,0.879,��,5.1,��
2017/07/05,20:30,0.944,1.494,1.000,1.796,1.234,0.525,0.950,0.876,��,4.4,��
2017/07/05,20:40,0.945,1.494,1.002,1.798,1.236,0.525,0.948,0.876,��쐼,2.0,��
2017/07/05,20:50,0.942,1.492,1.002,1.797,1.232,0.524,0.948,0.877,��쐼,0.9,��
2017/07/05,21:00,0.944,1.493,1.002,1.794,1.230,0.524,0.947,0.877,��,2.5,��
2017/07/05,21:10,0.945,1.494,1.002,1.800,1.235,0.523,0.948,0.877,��,2.9,��
2017/07/05,21:20,0.944,1.493,1.000,1.800,1.233,0.524,0.950,0.877,��쐼,2.5,��
2017/07/05,21:30,0.946,1.494,1.001,1.802,1.233,0.525,0.946,0.877,��쐼,2.0,��
2017/07/05,21:40,0.945,1.495,1.001,1.799,1.233,0.526,0.949,0.877,��쐼,1.2,��
2017/07/05,21:50,0.945,1.496,1.003,1.798,1.234,0.527,0.949,0.876,�쐼,1.4,��
2017/07/05,22:00,0.947,1.495,1.002,1.798,1.236,0.525,0.949,0.878,��쐼,2.2,��
2017/07/05,22:10,0.946,1.496,1.003,1.798,1.235,0.526,0.949,0.878,�쐼,1.7,��
2017/07/05,22:20,0.947,1.492,1.004,1.800,1.237,0.525,0.949,0.877,�쐼,1.1,��
2017/07/05,22:30,0.948,1.494,1.004,1.799,1.237,0.524,0.950,0.878,���k��,0.6,��
2017/07/05,22:40,0.946,1.494,1.000,1.797,1.235,0.525,0.949,0.877,-,CALM,��
2017/07/05,22:50,0.947,1.496,1.002,1.801,1.237,0.526,0.948,0.877,-,CALM,��
2017/07/05,23:00,0.946,1.496,1.001,1.802,1.234,0.526,0.949,0.878,���쐼,0.9,��
2017/07/05,23:10,0.947,1.495,1.003,1.802,1.237,0.524,0.948,0.878,��,1.1,��
2017/07/05,23:20,0.949,1.495,1.006,1.800,1.236,0.524,0.947,0.878,���k��,0.9,��
2017/07/05,23:30,0.948,1.494,1.004,1.799,1.236,0.524,0.948,0.879,���k��,0.6,��
2017/07/05,23:40,0.947,1.496,1.002,1.801,1.235,0.525,0.949,0.877,-,CALM,��
2017/07/05,23:50,0.947,1.493,1.002,1.801,1.234,0.524,0.948,0.878,�k,0.9,��
